Location: Gairloch Mountain Observatory
(46.1383°N, 60.9640°W)
Time: 14:11:38
(UTC-04:00)

Daily predictions for brighter satellites

Satellite Brightness Start Highest point End
(mag) Time Altitude Azimuth Time Altitude Azimuth Time Altitude Azimuth
Cosmos 371 Rocket 3.3 17:20:15 10° S 17:24:59 63° ESE 17:29:45 10° NNE
SMAP 3.1 17:22:27 10° SSE 17:27:07 83° ENE 17:31:48 10° NNW
Cosmos 2360 Rocket 3.7 17:25:17 10° WSW 17:30:17 32° NW 17:35:20 10° NNE
Cosmos 1634 Rocket 4.0 17:24:41 10° N 17:30:54 72° E 17:37:02 10° SSE
CZ-4 R/B 4.5 17:27:03 10° SSE 17:31:08 60° ENE 17:35:14 10° N
Cosmos 1980 3.8 17:30:03 10° S 17:35:37 59° ESE 17:41:12 10° NNE
CORIOLIS 4.2 17:30:40 10° SSE 17:36:01 87° ENE 17:41:26 10° NNW
ATLAS 5 CENTAUR R/B 4.0 17:35:18 10° NNW 17:38:20 15° NNE 17:41:31 10° NE
MONITOR-E 4.4 17:35:35 10° SSE 17:38:38 47° ENE 17:41:43 10° N
IDEFIX/ARIANE 42P 3.1 17:36:28 10° S 17:41:38 65° W 17:46:53 10° NNW
Abrixas 3.3 17:42:54 10° SW 17:45:39 38° SSE 17:47:56 14° E
Cosmos 44 Rocket 3.6 17:41:52 10° SW 17:46:59 76° NW 17:52:02 10° NNE
Lacrosse 5 rocket 1.7 17:43:55 10° WNW 17:47:38 60° SW 17:51:31 10° SE
MSX 3.9 17:42:37 10° SSE 17:48:21 84° WSW 17:54:08 10° NNW
Cosmos 372 Rocket 3.9 17:45:36 10° NNW 17:50:44 88° ENE 17:55:50 10° SSE
Timation 1 Rocket 4.3 17:45:16 10° NNW 17:51:17 67° ENE 17:57:16 10° SE
ATLAS 3B R/B 4.4 17:46:44 10° NW 17:51:35 19° N 17:56:19 10° NE
Aureole 2 Rocket 2.9 17:50:42 10° S 17:54:22 52° ESE 17:58:22 10° NNE
Cosmos 2219 Rocket 2.5 17:48:47 10° SW 17:54:24 69° WNW 18:00:02 10° NNE
USA 116 3.9 17:52:38 10° N 17:55:45 55° WNW 17:58:47 10° SSW
FREGAT/IRIS 4.1 17:54:08 10° ESE 17:56:21 19° ENE 17:58:35 10° NNE
Cosmos 2333 Rocket 2.3 17:51:14 10° SSW 17:56:53 83° WNW 18:02:36 10° NNE
Cosmos 1707 Rocket 4.0 17:54:07 10° N 17:58:09 37° ENE 18:02:11 10° SE
USA 215 3.3 17:51:48 10° ESE 17:58:14 62° NNE 18:04:41 10° NW
Cosmos 540 Rocket 3.4 17:53:08 10° SSW 17:58:19 82° ESE 18:03:31 10° NNE
COSMO-SKYMED 1 2.7 17:55:13 10° NNE 17:59:29 52° E 18:03:43 10° S
Cosmos 1626 3.1 17:57:37 10° SSE 18:00:46 26° E 18:03:25 13° NE
YAOGAN 1 3.6 17:56:49 10° S 18:01:01 51° W 18:05:16 10° NNW
CZ-4C R/B 4.2 17:57:03 10° NNW 18:01:25 18° NNE 18:05:24 12° NE
Cosmos 304 Rocket 4.1 17:57:01 10° S 18:01:34 44° ESE 18:06:08 10° NNE
Cosmos 1328 4.1 17:58:51 10° SSW 18:02:47 69° W 18:06:44 10° N
Cosmos 2278 Rocket 2.9 17:58:58 10° NNW 18:04:33 58° WSW 18:10:05 10° S
Cosmos 2151 3.1 18:05:50 10° SSW 18:10:02 78° W 18:14:15 10° N
Cosmos 1666 Rocket 4.1 18:07:29 10° SSE 18:11:23 34° E 18:15:22 10° NNE
CZ-4 R/B 3.9 18:08:49 10° SSW 18:12:02 25° W 18:15:18 10° NW
Cosmos 1726 3.4 18:09:29 10° NNW 18:13:06 44° W 18:16:42 10° SSW
Cosmos 1455 2.6 18:11:09 10° N 18:14:45 38° ENE 18:18:19 10° SE
Resurs 01 Rocket 2.6 18:11:48 12° ESE 18:14:57 25° ENE 18:18:34 10° N
Lacrosse 5 3.4 18:13:02 10° NW 18:17:08 24° N 18:19:53 16° NE
Cosmos 2279 Rocket 4.0 18:12:14 10° N 18:18:29 85° W 18:24:43 10° S
Cosmos 1703 3.2 18:15:43 10° S 18:19:31 57° E 18:23:22 10° NNE
SJ-6B 3.1 18:15:41 10° SE 18:19:36 46° ENE 18:23:35 10° N
Cosmos 1900 4.4 18:16:46 10° NW 18:21:45 84° SW 18:26:45 10° SSE
Cosmos 2237 Rocket 2.7 18:25:32 10° SW 18:31:05 59° WNW 18:36:41 10° NNE
Cosmos 2369 Rocket 3.2 18:28:13 10° N 18:32:50 25° NE 18:33:18 24° NE
CENTAUR R/B 3.9 18:27:35 10° W 18:33:23 35° NNW 18:39:43 11° NNE
SL-16 R/B 2.1 18:32:59 10° SSW 18:38:38 76° ESE 18:43:04 17° NNE
USA 229 DEB 4.1 18:33:02 10° S 18:39:20 41° ESE 18:42:14 28° ENE
USA 229 4.1 18:33:09 10° S 18:39:26 40° ESE 18:42:17 28° ENE
Nadezhda 4 Rocket 3.9 18:34:40 10° S 18:40:52 67° E 18:47:08 10° NNE
Lacrosse 4 Rocket 1.3 18:36:54 10° NNW 18:40:55 56° NE 18:42:02 40° ESE
Cosmos 44 4.3 18:38:20 10° WSW 18:43:19 44° NW 18:47:02 16° NNE
Cosmos 2242 Rocket 3.5 18:39:47 10° N 18:44:10 58° E 18:48:32 10° SSE
Cosmos 1340 Rocket 3.7 18:42:57 10° SSW 18:46:46 48° WNW 18:50:36 10° N
ALOS 2.3 18:42:40 10° SSE 18:47:12 54° ENE 18:51:46 10° N
SKYMED 2 4.4 18:43:21 10° N 18:47:34 50° WNW 18:51:45 10° SW
Spot 2 Rocket 3.5 18:42:47 10° SE 18:47:40 52° ENE 18:52:33 10° N
Cosmos 2297 4.5 18:42:46 10° NW 18:48:21 55° WSW 18:53:54 10° S
Cosmos 1805 Rocket 3.9 18:45:16 10° SSW 18:49:42 67° W 18:54:10 10° N
FAST Rocket 4.2 18:49:27 10° SSW 18:52:01 67° W 18:52:03 67° WNW
Cosmos 1184 Rocket 2.9 18:51:22 10° S 18:54:20 68° S 18:54:20 68° S
Iridium 4 Rocket 2.9 18:53:22 10° S 18:57:46 62° E 18:58:22 55° NE
Meteor 1-28 Rocket 4.2 18:54:55 10° N 18:58:30 45° WNW 19:02:03 10° SW
Cosmos 1869 3.2 18:55:30 10° N 18:59:35 81° E 19:03:37 10° S
Cosmos 1092 Rocket 3.9 18:55:53 10° S 19:02:11 70° E 19:08:30 10° NNE
Cosmos 1538 Rocket 4.1 18:57:36 10° SSW 19:02:54 80° WNW 19:06:34 21° NNE
Cosmos 1461 3.2 18:59:34 10° SW 19:03:42 62° NW 19:04:38 47° N
Sich 1 3.3 19:00:34 10° SSW 19:04:59 70° W 19:08:50 14° N
FENGYUN 3A 3.5 19:04:11 10° SSE 19:09:33 84° ENE 19:14:58 10° NNW
Cosmos 923 Rocket 4.0 19:05:36 10° S 19:10:30 57° ESE 19:10:30 57° ESE
SL-19 R/B 4.4 19:07:10 10° SSE 19:13:00 79° WSW 19:18:38 10° NNW
Cosmos 1633 Rocket 3.4 19:09:29 10° SSW 19:13:51 64° W 19:16:41 21° N
Cosmos 1867 4.4 19:12:02 10° NNW 19:16:07 34° NNE 19:16:07 34° NNE
Cosmos 1680 Rocket 4.3 19:12:33 10° S 19:15:55 37° SSE 19:15:55 37° SSE
Aureole 1 Rocket 3.9 19:13:19 10° SSW 19:18:54 88° ESE 19:24:42 17° NNE
Cosmos 972 Rocket 4.5 19:15:17 10° NNW 19:19:15 47° NNE 19:19:15 47° NNE
ATLAS 5 CENTAUR R/B 3.3 19:19:41 10° NNW 19:23:48 30° NNE 19:23:48 30° NNE
Cosmos 2195 Rocket 4.3 19:20:22 10° S 19:26:25 71° E 19:28:24 44° NNE
H-2A ROCKET BODY 4.4 19:15:21 10° WSW 19:29:23 24° SSW 19:33:03 16° SSE
USA 215 3.9 19:37:34 24° SSE 19:41:21 50° SW 19:47:42 10° WNW
Cosmos 1943 Rocket 3.8 19:37:16 10° NNW 19:39:28 22° N 19:39:28 22° N
Cosmos 1603 3.7 19:37:40 10° SSW 19:42:35 70° SSW 19:42:35 70° SSW
ATLAS 3B R/B 4.0 19:39:18 10° NNW 19:44:15 24° NNE 19:44:15 24° NNE
Resurs 01 Rocket 3.0 19:49:19 25° SW 19:51:15 37° W 19:55:25 10° NNW
CZ-4C R/B 3.7 19:45:45 10° NNW 19:50:36 34° NNE 19:50:36 34° NNE
Lacrosse 5 3.7 19:56:45 10° NW 19:59:06 23° NNW 19:59:06 23° NNW
Cosmos 2369 Rocket 3.4 20:11:44 10° NNW 20:15:08 37° NW 20:15:08 37° NW
Lacrosse 4 Rocket 4.3 20:16:49 10° WNW 20:18:28 15° W 20:18:28 15° W
SL-16 R/B 4.2 20:19:02 10° W 20:23:23 22° NW 20:24:59 20° NNW
USA 229 DEB 4.3 20:23:28 10° WSW 20:29:43 52° NW 20:29:43 52° NW
USA 229 4.3 20:23:33 10° WSW 20:29:46 52° WNW 20:29:46 52° WNW
